Terminal Aerodrome Forecast
Issued by NWS

Home | Current Version | Previous Version | Text Only | Print | Product List | Glossary On
Versions: 1 2 3 4 5 6 7 8 9 10 11 12 13 14 15 16 17 18 19 20 21 22 23 24 25 26 27 28 29 30 31 32 33 34
568
FTAK31 PAFA 280520
TAFAOM
TAF
PAOM 280520Z 2806/2906 26008KT P6SM OVC005
     FM281200 31008KT P6SM BKN005 OVC012
     FM281800 36008KT P6SM SCT008 OVC015=

USA.gov is the U.S. government's official web portal to all federal, state and local government web resources and services.